| time (UTC) | temp F | wind direction | speed MPH | gust MPH | rain 1hr in | rain 24hr in | rain mn in | humidity % | barometer mb |
| 20260506195137 | 64 | 81 | 4.0 | 5.0 | 0.00 | 0.04 | 0.04 | 64 | 1014.2 |
| 20260506194634 | 64 | 70 | 2.0 | 4.0 | 0.00 | 0.04 | 0.04 | 64 | 1014.1 |
| 20260506194131 | 64 | 83 | 1.0 | 8.0 | 0.00 | 0.04 | 0.04 | 64 | 1014.2 |
| 20260506193629 | 64 | 101 | 3.0 | 5.0 | 0.00 | 0.04 | 0.04 | 65 | 1014.5 |
| 20260506193125 | 63 | 83 | 5.0 | 8.0 | 0.00 | 0.04 | 0.04 | 66 | 1014.4 |
| 20260506192622 | 64 | 78 | 6.0 | 6.0 | 0.00 | 0.04 | 0.04 | 63 | 1014.6 |
| 20260506192118 | 62 | 85 | 4.0 | 7.0 | 0.00 | 0.04 | 0.04 | 68 | 1014.9 |
| 20260506191615 | 62 | 94 | 4.0 | 8.0 | 0.00 | 0.04 | 0.04 | 66 | 1014.8 |
| 20260506191111 | 61 | 99 | 4.0 | 8.0 | 0.00 | 0.04 | 0.04 | 67 | 1015.0 |
| 20260506190609 | 62 | 81 | 5.0 | 7.0 | 0.00 | 0.04 | 0.04 | 67 | 1015.1 |
| 20260506190105 | 62 | 98 | 4.0 | 14.0 | 0.00 | 0.04 | 0.04 | 67 | 1014.8 |
| 20260506185603 | 62 | 100 | 4.0 | 5.0 | 0.00 | 0.04 | 0.04 | 66 | 1014.9 |
| 20260506185059 | 62 | 56 | 2.0 | 9.0 | 0.00 | 0.04 | 0.04 | 67 | 1014.7 |
| 20260506184556 | 62 | 56 | 3.0 | 4.0 | 0.00 | 0.04 | 0.04 | 66 | 1014.6 |
| 20260506184053 | 61 | 102 | 5.0 | 6.0 | 0.00 | 0.04 | 0.04 | 68 | 1014.2 |
| 20260506183549 | 61 | 27 | 4.0 | 10.0 | 0.00 | 0.04 | 0.04 | 69 | 1014.1 |
| 20260506183046 | 60 | 77 | 4.0 | 8.0 | 0.00 | 0.04 | 0.04 | 69 | 1014.4 |
| 20260506182543 | 60 | 296 | 4.0 | 12.0 | 0.00 | 0.04 | 0.04 | 73 | 1014.7 |
| 20260506182041 | 59 | 20 | 4.0 | 10.0 | 0.00 | 0.04 | 0.04 | 72 | 1014.6 |
| 20260506181539 | 60 | 0 | 4.0 | 7.0 | 0.00 | 0.04 | 0.04 | 70 | 1014.7 |
| 20260506181035 | 60 | 328 | 4.0 | 6.0 | 0.00 | 0.04 | 0.04 | 72 | 1014.5 |
| 20260506180531 | 59 | 104 | 4.0 | 10.0 | 0.00 | 0.04 | 0.04 | 73 | 1014.4 |
| 20260506180028 | 59 | 317 | 8.0 | 12.0 | 0.00 | 0.04 | 0.04 | 71 | 1014.2 |
| 20260506175525 | 59 | 28 | 6.0 | 13.0 | 0.00 | 0.04 | 0.04 | 72 | 1014.5 |
| 20260506175021 | 59 | 39 | 3.0 | 9.0 | 0.00 | 0.04 | 0.04 | 74 | 1014.7 |
| 20260506174520 | 58 | 48 | 2.0 | 6.0 | 0.00 | 0.04 | 0.04 | 77 | 1014.8 |
| 20260506174015 | 57 | 34 | 4.0 | 8.0 | 0.00 | 0.04 | 0.04 | 77 | 1014.9 |
| 20260506173513 | 56 | 77 | 2.0 | 7.0 | 0.00 | 0.04 | 0.04 | 79 | 1015.0 |
| 20260506173010 | 56 | 41 | 7.0 | 8.0 | 0.00 | 0.04 | 0.04 | 77 | 1015.0 |
| 20260506172508 | 56 | 50 | 4.0 | 7.0 | 0.00 | 0.04 | 0.04 | 77 | 1014.9 |
| 20260506172003 | 55 | 72 | 4.0 | 14.0 | 0.00 | 0.04 | 0.04 | 79 | 1014.2 |
| 20260506171501 | 55 | 81 | 4.0 | 9.0 | 0.00 | 0.04 | 0.04 | 79 | 1014.7 |
| 20260506170959 | 55 | 68 | 9.0 | 11.0 | 0.00 | 0.04 | 0.04 | 80 | 1014.7 |
| 20260506170455 | 55 | 12 | 8.0 | 12.0 | 0.00 | 0.04 | 0.04 | 80 | 1014.9 |
| 20260506165953 | 55 | 85 | 8.0 | 8.0 | 0.00 | 0.04 | 0.04 | 81 | 1014.8 |
| 20260506165452 | 54 | 93 | 4.0 | 8.0 | 0.00 | 0.04 | 0.04 | 83 | 1014.4 |
| 20260506164948 | 54 | 74 | 3.0 | 6.0 | 0.00 | 0.04 | 0.04 | 85 | 1014.4 |
| 20260506164444 | 53 | 328 | 4.0 | 8.0 | 0.00 | 0.04 | 0.04 | 85 | 1014.6 |
| 20260506163942 | 53 | 92 | 4.0 | 6.0 | 0.00 | 0.04 | 0.04 | 85 | 1014.9 |
| 20260506163437 | 53 | 107 | 4.0 | 11.0 | 0.00 | 0.04 | 0.04 | 86 | 1014.7 |
| 20260506162932 | 52 | 81 | 4.0 | 9.0 | 0.00 | 0.04 | 0.04 | 87 | 1014.4 |
| 20260506162431 | 52 | 73 | 5.0 | 12.0 | 0.00 | 0.04 | 0.04 | 86 | 1014.4 |
| 20260506161927 | 52 | 73 | 4.0 | 9.0 | 0.00 | 0.04 | 0.04 | 87 | 1014.1 |
| 20260506161426 | 52 | 29 | 5.0 | 10.0 | 0.00 | 0.04 | 0.04 | 88 | 1014.4 |
| 20260506160923 | 52 | 124 | 2.0 | 10.0 | 0.00 | 0.04 | 0.04 | 88 | 1014.4 |
| 20260506160420 | 52 | 37 | 4.0 | 6.0 | 0.00 | 0.04 | 0.04 | 88 | 1014.5 |
| 20260506155917 | 52 | 53 | 6.0 | 9.0 | 0.00 | 0.04 | 0.04 | 88 | 1014.5 |
| 20260506155415 | 52 | 29 | 6.0 | 15.0 | 0.00 | 0.04 | 0.04 | 88 | 1014.4 |
| 20260506153536 | 52 | 44 | 5.0 | 12.0 | 0.00 | 0.04 | 0.04 | 90 | 1013.8 |
| 20260506153034 | 51 | 62 | 3.0 | 10.0 | 0.00 | 0.04 | 0.04 | 91 | 1014.0 |
| 20260506152531 | 51 | 96 | 6.0 | 12.0 | 0.00 | 0.04 | 0.04 | 91 | 1014.4 |
| 20260506152029 | 51 | 83 | 4.0 | 13.0 | 0.00 | 0.04 | 0.04 | 91 | 1014.2 |
| 20260506151526 | 51 | 59 | 6.0 | 10.0 | 0.02 | 0.04 | 0.04 | 92 | 1014.6 |
| 20260506151023 | 51 | 102 | 5.0 | 11.0 | 0.02 | 0.04 | 0.04 | 92 | 1014.9 |
| 20260506150519 | 51 | 54 | 6.0 | 10.0 | 0.02 | 0.04 | 0.04 | 93 | 1014.5 |
| 20260506150017 | 51 | 48 | 6.0 | 7.0 | 0.02 | 0.04 | 0.04 | 93 | 1014.6 |
| 20260506145513 | 51 | 108 | 2.0 | 12.0 | 0.02 | 0.03 | 0.03 | 92 | 1014.7 |
| 20260506145011 | 50 | 87 | 5.0 | 8.0 | 0.02 | 0.03 | 0.03 | 92 | 1015.1 |
| 20260506144507 | 50 | 16 | 3.0 | 4.0 | 0.02 | 0.03 | 0.03 | 91 | 1016.3 |
| 20260506144005 | 50 | 347 | 1.0 | 3.0 | 0.05 | 0.03 | 0.03 | 91 | 1016.7 |
| 20260506143502 | 51 | 232 | 2.0 | 2.0 | 0.07 | 0.02 | 0.02 | 91 | 1016.6 |
| 20260506143001 | 50 | 93 | 3.0 | 3.0 | 0.02 | 0.02 | 0.02 | 91 | 1016.5 |
| 20260506142458 | 50 | 40 | 2.0 | 7.0 | 0.02 | 0.01 | 0.01 | 91 | 1015.1 |
| 20260506141956 | 50 | 68 | 4.0 | 5.0 | 0.02 | 0.01 | 0.01 | 91 | 1015.0 |
| 20260506141453 | 50 | 89 | 5.0 | 11.0 | 0.02 | 0.01 | 0.01 | 91 | 1014.1 |
| 20260506140952 | 50 | 141 | 2.0 | 5.0 | 0.00 | 0.00 | 0.00 | 91 | 1014.1 |
| 20260506140448 | 50 | 106 | 3.0 | 10.0 | 0.02 | 0.00 | 0.00 | 90 | 1014.0 |
| 20260506135945 | 51 | 85 | 6.0 | 7.0 | 0.02 | 0.00 | 0.00 | 89 | 1014.1 |
| 20260506135442 | 51 | 62 | 5.0 | 9.0 | 0.00 | 0.00 | 0.00 | 89 | 1014.0 |
| 20260506134938 | 51 | 63 | 5.0 | 9.0 | 0.00 | 0.00 | 0.00 | 88 | 1014.8 |
| 20260506134434 | 51 | 61 | 3.0 | 6.0 | 0.00 | 0.00 | 0.00 | 88 | 1015.3 |
| 20260506133932 | 51 | 59 | 5.0 | 8.0 | 0.00 | 0.00 | 0.00 | 87 | 1014.8 |
| 20260506133429 | 51 | 34 | 3.0 | 7.0 | 0.00 | 0.00 | 0.00 | 87 | 1015.3 |
| 20260506132925 | 51 | 50 | 2.0 | 5.0 | 0.00 | 0.00 | 0.00 | 87 | 1015.1 |
| 20260506132422 | 51 | 336 | 3.0 | 8.0 | 0.00 | 0.00 | 0.00 | 87 | 1015.2 |
| 20260506131920 | 51 | 101 | 4.0 | 9.0 | 0.00 | 0.00 | 0.00 | 87 | 1013.9 |
| 20260506131416 | 51 | 47 | 5.0 | 9.0 | 0.00 | 0.00 | 0.00 | 87 | 1013.8 |
| 20260506130913 | 51 | 74 | 5.0 | 12.0 | 0.00 | 0.00 | 0.00 | 86 | 1013.6 |
| 20260506130409 | 51 | 92 | 3.0 | 11.0 | 0.00 | 0.00 | 0.00 | 87 | 1013.5 |
| 20260506125908 | 51 | 51 | 5.0 | 10.0 | 0.00 | 0.00 | 0.00 | 86 | 1013.6 |
| 20260506125406 | 51 | 50 | 5.0 | 11.0 | 0.00 | 0.00 | 0.00 | 87 | 1013.7 |
| 20260506124904 | 50 | 67 | 3.0 | 13.0 | 0.00 | 0.00 | 0.00 | 87 | 1013.3 |
| 20260506124400 | 51 | 49 | 7.0 | 12.0 | 0.00 | 0.00 | 0.00 | 87 | 1013.3 |
| 20260506123858 | 51 | 40 | 6.0 | 10.0 | 0.00 | 0.00 | 0.00 | 87 | 1013.0 |
| 20260506123356 | 51 | 52 | 6.0 | 8.0 | 0.00 | 0.00 | 0.00 | 87 | 1012.8 |
| 20260506122854 | 51 | 36 | 8.0 | 10.0 | 0.00 | 0.00 | 0.00 | 87 | 1012.9 |
| 20260506122350 | 51 | 95 | 3.0 | 9.0 | 0.00 | 0.00 | 0.00 | 86 | 1013.1 |
| 20260506121849 | 51 | 42 | 8.0 | 11.0 | 0.00 | 0.00 | 0.00 | 86 | 1013.2 |
| 20260506121345 | 51 | 95 | 5.0 | 13.0 | 0.00 | 0.00 | 0.00 | 86 | 1013.0 |
| 20260506120842 | 51 | 87 | 4.0 | 10.0 | 0.00 | 0.00 | 0.00 | 85 | 1013.0 |
| 20260506120340 | 51 | 53 | 6.0 | 10.0 | 0.00 | 0.00 | 0.00 | 85 | 1013.0 |
| 20260506115837 | 51 | 28 | 3.0 | 7.0 | 0.00 | 0.00 | 0.00 | 84 | 1012.8 |
| 20260506115335 | 51 | 6 | 4.0 | 10.0 | 0.00 | 0.00 | 0.00 | 84 | 1012.8 |
| 20260506114833 | 51 | 24 | 6.0 | 12.0 | 0.00 | 0.00 | 0.00 | 84 | 1012.9 |
| 20260506114331 | 52 | 18 | 4.0 | 12.0 | 0.00 | 0.00 | 0.00 | 84 | 1012.9 |
| 20260506113829 | 52 | 304 | 2.0 | 10.0 | 0.00 | 0.00 | 0.00 | 84 | 1012.8 |
| 20260506113326 | 52 | 25 | 3.0 | 6.0 | 0.00 | 0.00 | 0.00 | 84 | 1012.7 |
| 20260506112823 | 52 | 5 | 6.0 | 11.0 | 0.00 | 0.00 | 0.00 | 84 | 1012.6 |
| 20260506112320 | 52 | 61 | 5.0 | 6.0 | 0.00 | 0.00 | 0.00 | 84 | 1012.7 |
| 20260506111817 | 52 | 351 | 3.0 | 6.0 | 0.00 | 0.00 | 0.00 | 84 | 1012.4 |
| 20260506111315 | 52 | 69 | 3.0 | 10.0 | 0.00 | 0.00 | 0.00 | 83 | 1012.3 |
| 20260506110813 | 52 | 85 | 7.0 | 13.0 | 0.00 | 0.00 | 0.00 | 83 | 1012.4 |
| 20260506110309 | 52 | 7 | 7.0 | 11.0 | 0.00 | 0.00 | 0.00 | 83 | 1012.0 |
| 20260506105806 | 52 | 20 | 5.0 | 12.0 | 0.00 | 0.00 | 0.00 | 83 | 1012.1 |
| 20260506105305 | 52 | 17 | 3.0 | 12.0 | 0.00 | 0.00 | 0.00 | 83 | 1011.8 |
| 20260506104800 | 52 | 40 | 3.0 | 9.0 | 0.00 | 0.00 | 0.00 | 83 | 1011.8 |
| 20260506104258 | 53 | 38 | 6.0 | 9.0 | 0.00 | 0.00 | 0.00 | 83 | 1011.5 |
| 20260506103755 | 53 | 332 | 8.0 | 13.0 | 0.00 | 0.00 | 0.00 | 82 | 1011.6 |
| 20260506103253 | 54 | 21 | 5.0 | 13.0 | 0.00 | 0.00 | 0.00 | 81 | 1011.8 |
| 20260506102750 | 54 | 62 | 6.0 | 8.0 | 0.00 | 0.00 | 0.00 | 82 | 1011.6 |
| 20260506102248 | 54 | 8 | 2.0 | 9.0 | 0.00 | 0.00 | 0.00 | 81 | 1011.7 |
| 20260506101745 | 54 | 47 | 5.0 | 10.0 | 0.00 | 0.00 | 0.00 | 81 | 1011.7 |
| 20260506101241 | 55 | 18 | 4.0 | 11.0 | 0.00 | 0.00 | 0.00 | 80 | 1011.5 |
| 20260506100739 | 55 | 358 | 6.0 | 8.0 | 0.00 | 0.00 | 0.00 | 79 | 1011.3 |
| 20260506100237 | 55 | 21 | 4.0 | 7.0 | 0.00 | 0.00 | 0.00 | 80 | 1011.0 |
| 20260506095735 | 55 | 330 | 3.0 | 5.0 | 0.00 | 0.00 | 0.00 | 80 | 1011.1 |
| 20260506095232 | 55 | 32 | 5.0 | 6.0 | 0.00 | 0.00 | 0.00 | 80 | 1010.9 |
| 20260506094729 | 56 | 24 | 2.0 | 7.0 | 0.00 | 0.00 | 0.00 | 79 | 1010.9 |
| 20260506094227 | 56 | 330 | 1.0 | 5.0 | 0.00 | 0.00 | 0.00 | 79 | 1010.7 |
| 20260506093726 | 56 | 24 | 5.0 | 7.0 | 0.00 | 0.00 | 0.00 | 79 | 1010.6 |
| 20260506093222 | 56 | 100 | 3.0 | 8.0 | 0.00 | 0.00 | 0.00 | 79 | 1010.6 |
| 20260506092720 | 56 | 78 | 2.0 | 6.0 | 0.00 | 0.00 | 0.00 | 79 | 1010.7 |
| 20260506092217 | 56 | 91 | 4.0 | 8.0 | 0.00 | 0.00 | 0.00 | 79 | 1010.7 |
| 20260506091715 | 56 | 52 | 6.0 | 11.0 | 0.00 | 0.00 | 0.00 | 79 | 1010.7 |
| 20260506091212 | 56 | 64 | 5.0 | 6.0 | 0.00 | 0.00 | 0.00 | 79 | 1010.9 |
| 20260506090710 | 56 | 64 | 3.0 | 7.0 | 0.00 | 0.00 | 0.00 | 79 | 1010.6 |
| 20260506090206 | 56 | 96 | 3.0 | 7.0 | 0.00 | 0.00 | 0.00 | 79 | 1010.5 |
| 20260506085703 | 56 | 91 | 4.0 | 6.0 | 0.00 | 0.00 | 0.00 | 78 | 1010.4 |
| 20260506085159 | 56 | 72 | 2.0 | 6.0 | 0.00 | 0.00 | 0.00 | 78 | 1010.5 |
| 20260506084656 | 56 | 66 | 5.0 | 7.0 | 0.00 | 0.00 | 0.00 | 79 | 1010.6 |
| 20260506084152 | 56 | 60 | 2.0 | 4.0 | 0.00 | 0.00 | 0.00 | 79 | 1010.6 |
| 20260506083649 | 56 | 49 | 4.0 | 6.0 | 0.00 | 0.00 | 0.00 | 80 | 1010.3 |
| 20260506083147 | 57 | 68 | 2.0 | 8.0 | 0.00 | 0.00 | 0.00 | 79 | 1010.3 |
| 20260506082644 | 57 | 74 | 4.0 | 10.0 | 0.00 | 0.00 | 0.00 | 79 | 1010.3 |
| 20260506082139 | 57 | 80 | 3.0 | 5.0 | 0.00 | 0.00 | 0.00 | 80 | 1010.1 |
| 20260506081638 | 57 | 102 | 2.0 | 8.0 | 0.00 | 0.00 | 0.00 | 80 | 1010.1 |
| 20260506081135 | 57 | 76 | 4.0 | 8.0 | 0.00 | 0.00 | 0.00 | 80 | 1010.2 |
| 20260506080633 | 57 | 20 | 4.0 | 6.0 | 0.00 | 0.00 | 0.00 | 81 | 1010.2 |
| 20260506080129 | 57 | 1 | 4.0 | 6.0 | 0.00 | 0.00 | 0.00 | 81 | 1010.0 |
| 20260506073113 | 57 | 89 | 3.0 | 6.0 | 0.00 | 0.00 | 0.00 | 82 | 1010.2 |
| 20260506072609 | 57 | 116 | 3.0 | 6.0 | 0.00 | 0.00 | 0.00 | 83 | 1010.6 |
| 20260506072108 | 57 | 44 | 4.0 | 6.0 | 0.00 | 0.00 | 0.00 | 83 | 1010.5 |
| 20260506071605 | 57 | 44 | 5.0 | 5.0 | 0.00 | 0.00 | 0.00 | 83 | 1010.1 |
| 20260506071102 | 57 | 22 | 2.0 | 4.0 | 0.00 | 0.00 | 0.00 | 83 | 1010.3 |
| 20260506070559 | 57 | 41 | 4.0 | 4.0 | 0.00 | 0.00 | 0.00 | 83 | 1010.1 |
| 20260506062034 | 58 | 76 | 7.0 | 9.0 | 0.00 | 0.00 | 0.00 | 80 | 1009.4 |
| 20260506061529 | 58 | 85 | 9.0 | 10.0 | 0.00 | 0.00 | 0.00 | 80 | 1009.3 |
| 20260506061027 | 59 | 68 | 11.0 | 12.0 | 0.00 | 0.00 | 0.00 | 80 | 1009.7 |
| 20260506060525 | 59 | 74 | 4.0 | 10.0 | 0.00 | 0.00 | 0.00 | 80 | 1009.8 |
| 20260506050954 | 59 | 56 | 3.0 | 8.0 | 0.00 | 0.00 | 0.00 | 78 | 1009.9 |
| 20260506050452 | 59 | 59 | 2.0 | 8.0 | 0.00 | 0.00 | 0.00 | 78 | 1009.8 |
| 20260506044942 | 60 | 64 | 6.0 | 7.0 | 0.00 | 0.00 | 0.00 | 77 | 1010.0 |
| 20260506044441 | 60 | 52 | 1.0 | 9.0 | 0.00 | 0.00 | 0.00 | 76 | 1009.9 |
| 20260506043937 | 60 | 23 | 8.0 | 10.0 | 0.00 | 0.00 | 0.00 | 76 | 1009.8 |
| 20260506043434 | 60 | 54 | 4.0 | 7.0 | 0.00 | 0.00 | 0.00 | 77 | 1009.8 |
| 20260506042932 | 60 | 32 | 5.0 | 5.0 | 0.00 | 0.00 | 0.00 | 77 | 1009.8 |
| 20260506042431 | 60 | 88 | 0.0 | 8.0 | 0.00 | 0.00 | 0.00 | 76 | 1009.9 |
| 20260506041929 | 60 | 61 | 5.0 | 9.0 | 0.00 | 0.00 | 0.00 | 76 | 1009.9 |
| 20260506041426 | 60 | 67 | 3.0 | 6.0 | 0.00 | 0.00 | 0.00 | 76 | 1009.9 |
| 20260506040923 | 61 | 36 | 8.0 | 9.0 | 0.00 | 0.00 | 0.00 | 76 | 1009.6 |
| 20260506040421 | 61 | 55 | 3.0 | 6.0 | 0.00 | 0.00 | 0.00 | 76 | 1009.8 |
| 20260506035917 | 61 | 346 | 9.0 | 11.0 | 0.00 | 0.00 | 0.00 | 75 | 1010.0 |
| 20260506035414 | 61 | 91 | 5.0 | 12.0 | 0.00 | 0.00 | 0.00 | 75 | 1009.8 |
| 20260506034911 | 61 | 56 | 3.0 | 9.0 | 0.00 | 0.00 | 0.00 | 74 | 1009.6 |
| 20260506034408 | 62 | 28 | 6.0 | 7.0 | 0.00 | 0.00 | 0.00 | 74 | 1009.8 |
| 20260506033905 | 62 | 22 | 6.0 | 7.0 | 0.00 | 0.00 | 0.00 | 74 | 1010.0 |
| 20260506033403 | 62 | 359 | 9.0 | 12.0 | 0.00 | 0.00 | 0.00 | 74 | 1009.8 |
| 20260506032859 | 62 | 51 | 5.0 | 8.0 | 0.00 | 0.00 | 0.00 | 74 | 1009.7 |
| 20260506032356 | 62 | 30 | 4.0 | 9.0 | 0.00 | 0.00 | 0.00 | 74 | 1009.6 |
| 20260506031853 | 63 | 340 | 4.0 | 8.0 | 0.00 | 0.00 | 0.00 | 74 | 1009.3 |
| 20260506031350 | 63 | 21 | 4.0 | 8.0 | 0.00 | 0.00 | 0.00 | 73 | 1009.3 |
| 20260506030848 | 63 | 3 | 7.0 | 9.0 | 0.00 | 0.00 | 0.00 | 73 | 1008.9 |
| 20260506030346 | 63 | 34 | 5.0 | 11.0 | 0.00 | 0.00 | 0.00 | 73 | 1008.9 |
| 20260506025842 | 64 | 28 | 5.0 | 10.0 | 0.00 | 0.00 | 0.00 | 73 | 1008.7 |
| 20260506025338 | 64 | 6 | 6.0 | 12.0 | 0.00 | 0.00 | 0.00 | 73 | 1008.8 |
| 20260506024836 | 64 | 58 | 4.0 | 13.0 | 0.00 | 0.00 | 0.00 | 73 | 1008.6 |
| 20260506024333 | 64 | 25 | 5.0 | 7.0 | 0.00 | 0.00 | 0.00 | 73 | 1008.6 |
| 20260506023829 | 64 | 16 | 2.0 | 11.0 | 0.00 | 0.00 | 0.00 | 73 | 1008.7 |
| 20260506023326 | 64 | 56 | 5.0 | 6.0 | 0.00 | 0.00 | 0.00 | 73 | 1008.3 |
| 20260506022822 | 64 | 82 | 6.0 | 11.0 | 0.00 | 0.00 | 0.00 | 72 | 1007.8 |
| 20260506022320 | 65 | 78 | 5.0 | 9.0 | 0.00 | 0.00 | 0.00 | 72 | 1007.7 |
| 20260506021818 | 65 | 79 | 5.0 | 11.0 | 0.00 | 0.00 | 0.00 | 72 | 1007.7 |
| 20260506021315 | 65 | 75 | 4.0 | 8.0 | 0.00 | 0.00 | 0.00 | 72 | 1007.8 |
| 20260506020811 | 65 | 17 | 5.0 | 6.0 | 0.00 | 0.00 | 0.00 | 72 | 1007.7 |
| 20260506020309 | 65 | 60 | 3.0 | 6.0 | 0.00 | 0.00 | 0.00 | 72 | 1007.7 |
| 20260506015807 | 66 | 61 | 3.0 | 6.0 | 0.00 | 0.00 | 0.00 | 71 | 1007.4 |
| 20260506015306 | 66 | 37 | 4.0 | 7.0 | 0.00 | 0.00 | 0.00 | 71 | 1007.4 |
| 20260506014801 | 66 | 27 | 2.0 | 7.0 | 0.00 | 0.00 | 0.00 | 70 | 1007.8 |
| 20260506014257 | 66 | 22 | 5.0 | 10.0 | 0.00 | 0.00 | 0.00 | 70 | 1007.5 |
| 20260506013754 | 66 | 35 | 5.0 | 9.0 | 0.00 | 0.00 | 0.00 | 70 | 1007.3 |
| 20260506013251 | 67 | 20 | 6.0 | 6.0 | 0.00 | 0.00 | 0.00 | 69 | 1007.1 |
| 20260506012748 | 67 | 30 | 5.0 | 7.0 | 0.00 | 0.00 | 0.00 | 69 | 1006.8 |
| 20260506012245 | 67 | 46 | 5.0 | 7.0 | 0.00 | 0.00 | 0.00 | 68 | 1006.9 |
| 20260506011742 | 68 | 59 | 4.0 | 7.0 | 0.00 | 0.00 | 0.00 | 69 | 1007.0 |
| 20260506011238 | 68 | 18 | 5.0 | 9.0 | 0.00 | 0.00 | 0.00 | 68 | 1007.0 |
| 20260506010737 | 68 | 35 | 3.0 | 6.0 | 0.00 | 0.00 | 0.00 | 68 | 1006.8 |
| 20260506010234 | 69 | 41 | 4.0 | 14.0 | 0.00 | 0.00 | 0.00 | 68 | 1006.3 |
| 20260506005731 | 69 | 80 | 4.0 | 6.0 | 0.00 | 0.00 | 0.00 | 68 | 1006.0 |
| 20260506005228 | 69 | 77 | 2.0 | 11.0 | 0.00 | 0.00 | 0.00 | 67 | 1005.8 |
| 20260506004723 | 69 | 335 | 6.0 | 13.0 | 0.00 | 0.00 | 0.00 | 67 | 1006.0 |
| 20260506004221 | 70 | 24 | 5.0 | 11.0 | 0.00 | 0.00 | 0.00 | 66 | 1005.8 |
| 20260506003717 | 70 | 13 | 9.0 | 10.0 | 0.00 | 0.00 | 0.00 | 66 | 1005.7 |
| 20260506003214 | 70 | 34 | 9.0 | 10.0 | 0.00 | 0.00 | 0.00 | 66 | 1006.1 |
| 20260506002710 | 71 | 22 | 8.0 | 12.0 | 0.00 | 0.00 | 0.00 | 65 | 1006.0 |
| 20260506002206 | 71 | 62 | 3.0 | 6.0 | 0.00 | 0.00 | 0.00 | 65 | 1005.6 |
| 20260506001702 | 71 | 3 | 3.0 | 8.0 | 0.00 | 0.00 | 0.00 | 64 | 1005.5 |
| 20260506001159 | 71 | 10 | 5.0 | 11.0 | 0.00 | 0.00 | 0.00 | 63 | 1005.5 |
| 20260506000656 | 71 | 43 | 2.0 | 12.0 | 0.00 | 0.00 | 0.00 | 63 | 1005.6 |
| 20260506000154 | 72 | 113 | 2.0 | 11.0 | 0.00 | 0.00 | 0.00 | 63 | 1005.9 |
| 20260505235651 | 72 | 54 | 4.0 | 9.0 | 0.00 | 0.00 | 0.00 | 62 | 1005.8 |
| 20260505235149 | 72 | 11 | 6.0 | 10.0 | 0.00 | 0.00 | 0.00 | 62 | 1005.7 |
| 20260505234645 | 73 | 22 | 4.0 | 8.0 | 0.00 | 0.00 | 0.00 | 62 | 1005.7 |
| 20260505234142 | 73 | 9 | 4.0 | 10.0 | 0.00 | 0.00 | 0.00 | 61 | 1005.7 |
| 20260505233639 | 74 | 107 | 5.0 | 8.0 | 0.00 | 0.00 | 0.00 | 61 | 1005.4 |
| 20260505233137 | 74 | 83 | 2.0 | 6.0 | 0.00 | 0.00 | 0.00 | 62 | 1005.5 |
| 20260505232634 | 75 | 1 | 3.0 | 6.0 | 0.00 | 0.00 | 0.00 | 61 | 1005.6 |
| 20260505232132 | 75 | 18 | 5.0 | 18.0 | 0.00 | 0.00 | 0.00 | 60 | 1005.3 |
| 20260505231628 | 76 | 29 | 10.0 | 13.0 | 0.00 | 0.00 | 0.00 | 59 | 1005.4 |
| 20260505231127 | 76 | 38 | 6.0 | 14.0 | 0.00 | 0.00 | 0.00 | 58 | 1005.3 |
| 20260505230625 | 77 | 350 | 7.0 | 10.0 | 0.00 | 0.00 | 0.00 | 58 | 1005.5 |
| 20260505230121 | 77 | 32 | 7.0 | 11.0 | 0.00 | 0.00 | 0.00 | 57 | 1005.4 |
| 20260505225617 | 78 | 21 | 6.0 | 9.0 | 0.00 | 0.00 | 0.00 | 56 | 1004.9 |
| 20260505225114 | 79 | 353 | 4.0 | 9.0 | 0.00 | 0.00 | 0.00 | 55 | 1004.9 |
| 20260505224610 | 80 | 355 | 4.0 | 11.0 | 0.00 | 0.00 | 0.00 | 53 | 1005.0 |
| 20260505224108 | 81 | 115 | 4.0 | 13.0 | 0.00 | 0.00 | 0.00 | 52 | 1005.1 |
| 20260505223605 | 81 | 357 | 2.0 | 13.0 | 0.00 | 0.00 | 0.00 | 53 | 1005.1 |
| 20260505223101 | 81 | 322 | 6.0 | 9.0 | 0.00 | 0.00 | 0.00 | 53 | 1004.8 |
| 20260505222558 | 82 | 26 | 2.0 | 11.0 | 0.00 | 0.00 | 0.00 | 53 | 1004.6 |
| 20260505222054 | 83 | 2 | 8.0 | 9.0 | 0.00 | 0.00 | 0.00 | 53 | 1004.5 |
| 20260505221551 | 84 | 338 | 7.0 | 12.0 | 0.00 | 0.00 | 0.00 | 51 | 1004.6 |
| 20260505221047 | 84 | 68 | 4.0 | 11.0 | 0.00 | 0.00 | 0.00 | 51 | 1004.7 |
| 20260505220545 | 84 | 18 | 3.0 | 9.0 | 0.00 | 0.00 | 0.00 | 51 | 1004.4 |
| 20260505220043 | 84 | 25 | 2.0 | 9.0 | 0.00 | 0.00 | 0.00 | 49 | 1004.4 |
| 20260505215541 | 85 | 8 | 6.0 | 11.0 | 0.00 | 0.00 | 0.00 | 48 | 1004.4 |
| 20260505215038 | 86 | 312 | 8.0 | 9.0 | 0.00 | 0.00 | 0.00 | 44 | 1004.6 |
| 20260505214536 | 87 | 334 | 3.0 | 12.0 | 0.00 | 0.00 | 0.00 | 42 | 1004.6 |
| 20260505214032 | 89 | 20 | 3.0 | 5.0 | 0.00 | 0.00 | 0.00 | 41 | 1004.5 |
| 20260505213530 | 88 | 37 | 2.0 | 7.0 | 0.00 | 0.00 | 0.00 | 40 | 1004.3 |
| 20260505213026 | 88 | 302 | 6.0 | 8.0 | 0.00 | 0.00 | 0.00 | 39 | 1004.6 |
| 20260505212523 | 88 | 326 | 6.0 | 9.0 | 0.00 | 0.00 | 0.00 | 38 | 1004.7 |
| 20260505212020 | 88 | 113 | 1.0 | 5.0 | 0.00 | 0.00 | 0.00 | 40 | 1004.6 |
| 20260505211517 | 89 | 18 | 6.0 | 6.0 | 0.00 | 0.00 | 0.00 | 38 | 1004.7 |
| 20260505211014 | 89 | 36 | 7.0 | 10.0 | 0.00 | 0.00 | 0.00 | 38 | 1004.5 |
| 20260505210511 | 89 | 325 | 2.0 | 6.0 | 0.00 | 0.00 | 0.00 | 41 | 1004.8 |
| 20260505210008 | 89 | 341 | 2.0 | 7.0 | 0.00 | 0.00 | 0.00 | 40 | 1004.6 |
| 20260505205506 | 88 | 70 | 2.0 | 8.0 | 0.00 | 0.00 | 0.00 | 42 | 1004.3 |
| 20260505205003 | 89 | 338 | 13.0 | 14.0 | 0.00 | 0.00 | 0.00 | 41 | 1004.7 |
| 20260505204500 | 89 | 278 | 4.0 | 9.0 | 0.00 | 0.00 | 0.00 | 44 | 1004.4 |
| 20260505203957 | 88 | 304 | 4.0 | 11.0 | 0.00 | 0.00 | 0.00 | 42 | 1004.6 |
| 20260505203454 | 89 | 278 | 8.0 | 12.0 | 0.00 | 0.00 | 0.00 | 42 | 1004.8 |
| 20260505202950 | 89 | 238 | 8.0 | 11.0 | 0.00 | 0.00 | 0.00 | 43 | 1005.0 |
| 20260505202447 | 89 | 279 | 8.0 | 12.0 | 0.00 | 0.00 | 0.00 | 44 | 1005.0 |
| 20260505201943 | 89 | 276 | 6.0 | 10.0 | 0.00 | 0.00 | 0.00 | 44 | 1005.0 |
| 20260505201440 | 88 | 273 | 6.0 | 10.0 | 0.00 | 0.00 | 0.00 | 43 | 1005.0 |
| 20260505200938 | 87 | 267 | 8.0 | 12.0 | 0.00 | 0.00 | 0.00 | 43 | 1005.1 |
| 20260505200435 | 87 | 277 | 9.0 | 13.0 | 0.00 | 0.00 | 0.00 | 42 | 1005.0 |
| 20260505195930 | 88 | 271 | 5.0 | 11.0 | 0.00 | 0.00 | 0.00 | 46 | 1004.9 |